TimeMST,TemperatureF,Dew PointF,Humidity,Sea Level PressureIn,VisibilityMPH,Wind Direction,Wind SpeedMPH,Gust SpeedMPH,PrecipitationIn,Events,Conditions,WindDirDegrees,DateUTC
12:53 AM,-9.0,-14.1,79,30.08,10.0,Calm,Calm,-,N/A,,Mostly Cloudy,0,2014-02-07 07:53:00
1:53 AM,-11.0,-16.1,78,30.05,10.0,ESE,3.5,-,N/A,,Clear,120,2014-02-07 08:53:00
2:53 AM,-13.0,-18.0,78,30.04,10.0,Calm,Calm,-,N/A,,Clear,0,2014-02-07 09:53:00
3:53 AM,-9.9,-15.0,78,30.01,10.0,SSE,4.6,-,N/A,,Overcast,150,2014-02-07 10:53:00
4:53 AM,-6.0,-11.9,75,29.99,10.0,SSE,5.8,-,N/A,,Overcast,150,2014-02-07 11:53:00
5:53 AM,-5.1,-11.0,76,29.99,10.0,ESE,3.5,-,N/A,,Mostly Cloudy,110,2014-02-07 12:53:00
6:53 AM,-7.1,-11.9,79,30.03,10.0,South,3.5,-,N/A,,Clear,190,2014-02-07 13:53:00
7:53 AM,-4.0,-9.9,76,30.02,10.0,South,5.8,-,N/A,,Overcast,190,2014-02-07 14:53:00
8:35 AM,-2.2,-9.4,71,29.61,2.5,ESE,3.5,-,N/A,,Haze,120,2014-02-07 15:35:00
8:42 AM,-2.2,-7.6,78,29.61,10.0,Calm,Calm,-,N/A,,Overcast,0,2014-02-07 15:42:00
8:53 AM,-0.9,-7.1,75,30.03,10.0,ENE,3.5,-,N/A,,Overcast,60,2014-02-07 15:53:00
9:53 AM,1.0,-5.1,75,30.01,10.0,Calm,Calm,-,N/A,,Overcast,0,2014-02-07 16:53:00
10:53 AM,9.0,-0.9,64,29.98,10.0,Calm,Calm,-,N/A,,Overcast,0,2014-02-07 17:53:00
11:53 AM,12.9,1.0,59,29.94,10.0,NNW,4.6,-,N/A,,Partly Cloudy,330,2014-02-07 18:53:00
12:53 PM,19.0,5.0,54,29.91,10.0,Calm,Calm,-,N/A,,Scattered Clouds,0,2014-02-07 19:53:00
1:53 PM,25.0,9.0,51,29.89,10.0,ENE,3.5,-,N/A,,Scattered Clouds,60,2014-02-07 20:53:00
2:53 PM,24.1,9.0,53,29.91,10.0,WSW,13.8,17.3,N/A,,Clear,250,2014-02-07 21:53:00
3:53 PM,25.0,7.0,46,29.92,10.0,West,8.1,-,N/A,,Mostly Cloudy,270,2014-02-07 22:53:00
4:53 PM,24.1,8.1,51,29.93,10.0,WNW,4.6,-,N/A,,Partly Cloudy,290,2014-02-07 23:53:00
5:53 PM,14.0,5.0,67,29.98,10.0,Calm,Calm,-,N/A,,Clear,0,2014-02-08 00:53:00
6:53 PM,10.9,3.0,70,30.01,10.0,Calm,Calm,-,N/A,,Clear,0,2014-02-08 01:53:00
7:53 PM,6.1,-0.9,73,30.03,10.0,SE,3.5,-,N/A,,Scattered Clouds,130,2014-02-08 02:53:00
8:53 PM,6.1,-0.9,73,30.02,10.0,Calm,Calm,-,N/A,,Mostly Cloudy,0,2014-02-08 03:53:00
9:53 PM,5.0,-0.9,76,29.99,10.0,Calm,Calm,-,N/A,,Overcast,0,2014-02-08 04:53:00
10:53 PM,7.0,1.0,77,29.94,10.0,Calm,Calm,-,N/A,,Overcast,0,2014-02-08 05:53:00
11:53 PM,7.0,1.9,80,29.91,10.0,Calm,Calm,-,N/A,,Overcast,0,2014-02-08 06:53:00